Location: ???????
(55.5917°N, 37.3214°E)
Time: 00:23:47
(UTC+00:00)

Daily predictions for brighter satellites

Satellite Brightness Start Highest point End
(mag) Time Altitude Azimuth Time Altitude Azimuth Time Altitude Azimuth
Abrixas rocket 3.7 00:04:46 10° SW 00:06:26 14° SSW 00:08:05 10° SSE
Cosmos 1242 Rocket 2.8 00:07:39 10° N 00:11:06 69° ENE 00:14:34 10° SSE
IRS-P3 4.5 00:08:17 10° NNE 00:13:38 67° ESE 00:18:56 10° S
Cosmos 2016 Rocket 4.3 00:09:42 10° SSW 00:15:44 55° WNW 00:21:55 10° N
IDEFIX/ARIANE 42P 4.0 00:12:08 10° NNE 00:16:56 36° E 00:21:41 10° SSE
